Hourly Data Report for January 13, 2004

All times are specified in Local Standard Time (LST). Add 1 hour to adjust for Daylight Saving Time where and when it is observed.

SHERBROOKE A
QUEBEC

45°26'00.000" N
71°41'00.000" W
241.40 m
7028124
71610
YSC

Download Data

Hourly Data (January 2004)
Hourly Data Report for January 13, 2004
TIME Temp Definition
°C
Dew Point Temp Definition
°C
Rel Hum Definition
%
Wind Dir Definition
10's deg

Wind Spd Definition
km/h
Visibility Definition
km
Stn Press Definition
kPa
Hmdx Definition


Wind Chill Definition


Weather Definition


00:00 -24.5 -28.9 67 18 6 15.0 98.45   -30  
01:00 -23.4 -27.9 66   0 15.0 98.39      
02:00 -20.9 -25.0 70 8 4 12.9 98.33   -24  
03:00 -19.8 -23.6 72 8 4 12.9 98.24   -23  
04:00 -18.8 -22.5 73 9 6 15.0 98.13   -24  
05:00 -18.0 -21.6 73 9 9 15.0 97.99   -24  
06:00 -16.9 -20.5 74 9 9 15.0 97.83   -23  
07:00 -16.3 -19.8 74 9 7 11.3 97.68   -21 Snow
08:00 -15.3 -18.6 76 9 11 12.9 97.46   -22 Snow
09:00 -13.7 -16.6 79 9 6 1.2 97.26   -18 Snow
10:00 -12.5 -14.6 84   0 0.8 97.16     Moderate Snow
11:00 -10.8 -12.9 84 21 7 1.6 97.08   -15 Snow
12:00 -7.4 -9.5 85 23 17 0.8 97.05   -14 Moderate Snow
13:00 -10.1 -13.8 74 27 41 4.8 97.19   -21 Snow Showers,Blowing Snow
14:00 -12.8 -16.7 73 28 28 12.9 97.46   -23 Snow Showers
15:00 -12.4 -16.2 73 28 30 3.2 97.55   -23 Snow Showers
16:00 -14.4 -18.7 70 30 35 0.8 97.69   -26 Moderate Snow Showers
17:00 -16.9 -21.4 68 31 26 1.2 97.93   -28 Snow Showers
18:00 -20.4 -27.1 55 30 33 1.4 98.15   -34 Snow
19:00 -22.4 -30.1 50 31 22 6.4 98.30   -34  
20:00 -23.7 -31.4 49 30 19 15.0 98.42   -35  
21:00 -25.0 -33.0 47 30 28 15.0 98.49   -39 Snow
22:00 -26.1 -33.7 49 30 26 11.3 98.62   -40  
23:00 -27.2 -35.0 48 30 28 15.0 98.71   -42  

Notes on Data Quality.

Legend

  • E = Estimated
  • M = Missing
  • NA = Not Available
Date modified: